TimeCDT,TemperatureF,Dew PointF,Humidity,Sea Level PressureIn,VisibilityMPH,Wind Direction,Wind SpeedMPH,Gust SpeedMPH,PrecipitationIn,Events,Conditions,WindDirDegrees,DateUTC
12:55 AM,63.0,57.9,84,30.05,10.0,NNW,3.5,-,N/A,,Clear,340,2013-08-13 05:55:00
1:55 AM,61.0,57.0,87,30.04,10.0,NNW,5.8,-,N/A,,Clear,340,2013-08-13 06:55:00
2:55 AM,59.0,55.9,90,30.06,10.0,NW,4.6,-,N/A,,Clear,320,2013-08-13 07:55:00
3:55 AM,59.0,55.9,90,30.05,10.0,NW,3.5,-,N/A,,Clear,320,2013-08-13 08:55:00
4:55 AM,60.1,57.0,90,30.05,10.0,NNW,5.8,-,N/A,,Clear,340,2013-08-13 09:55:00
5:55 AM,60.1,55.9,86,30.06,10.0,NNW,3.5,-,N/A,,Clear,340,2013-08-13 10:55:00
6:55 AM,61.0,55.9,83,30.07,10.0,North,8.1,-,N/A,,Clear,360,2013-08-13 11:55:00
7:55 AM,63.0,57.0,81,30.08,10.0,North,6.9,-,N/A,,Clear,10,2013-08-13 12:55:00
8:55 AM,66.0,57.9,75,30.11,10.0,NNE,6.9,-,N/A,,Clear,20,2013-08-13 13:55:00
9:55 AM,70.0,59.0,68,30.12,10.0,NE,5.8,-,N/A,,Clear,40,2013-08-13 14:55:00
10:55 AM,73.9,59.0,59,30.13,10.0,North,5.8,-,N/A,,Clear,360,2013-08-13 15:55:00
11:55 AM,79.0,57.0,47,30.14,10.0,Variable,4.6,-,N/A,,Clear,0,2013-08-13 16:55:00
12:55 PM,80.1,54.0,40,30.13,10.0,NNE,5.8,-,N/A,,Partly Cloudy,30,2013-08-13 17:55:00
1:55 PM,81.0,55.9,42,30.12,10.0,NNE,8.1,-,N/A,,Scattered Clouds,20,2013-08-13 18:55:00
2:55 PM,80.1,57.0,45,30.11,10.0,NNE,11.5,-,N/A,,Mostly Cloudy,30,2013-08-13 19:55:00
3:55 PM,81.0,55.9,42,30.10,10.0,NNE,11.5,-,N/A,,Partly Cloudy,30,2013-08-13 20:55:00
4:55 PM,79.0,55.0,44,30.09,10.0,NE,6.9,17.3,N/A,,Clear,50,2013-08-13 21:55:00
5:55 PM,78.1,55.9,46,30.09,10.0,NE,10.4,-,N/A,,Clear,50,2013-08-13 22:55:00
6:55 PM,73.9,55.9,53,30.09,10.0,NE,9.2,-,N/A,,Clear,50,2013-08-13 23:55:00
7:55 PM,68.0,55.9,65,30.10,10.0,NE,6.9,-,N/A,,Clear,50,2013-08-14 00:55:00
8:55 PM,64.9,55.0,70,30.12,10.0,ENE,4.6,-,N/A,,Clear,60,2013-08-14 01:55:00
9:55 PM,63.0,55.0,75,30.14,10.0,ENE,4.6,-,N/A,,Clear,60,2013-08-14 02:55:00
10:55 PM,62.1,54.0,75,30.17,10.0,ENE,4.6,-,N/A,,Clear,60,2013-08-14 03:55:00
11:55 PM,57.9,54.0,87,30.18,10.0,NE,5.8,-,N/A,,Clear,50,2013-08-14 04:55:00